Location: Strawberry
(45.6646°N, 111.9596°W)
Time: 14:10:00
(UTC+00:00)

Tiangong - Pass Details

Date: 17 August 2022
Orbit: 377 x 382 km, 41.5° (Epoch: 27 September)

Event Time Altitude Azimuth Distance (km) Brightness Sun altitude
Rises 03:56:10 0° 235° (SW) 2,231 2.0 -13.5°
Reaches altitude 10° 03:58:26 10° 221° (SW) 1,380 0.7 -13.8°
Enters shadow 04:00:57 25° 167° (SSE) 816 -0.9 -14.2°
